FW2418 Weather Reports


time (UTC)temp
F
wind
direction
speed
knots
gust
knots
rain 1hr
in
rain 24hr
in
rain mn
in
humidity
%
barometer
mb
20260507202643 95 302 0.9 5.2 0.00 0.00 0.00 37 1010.0
20260507201642 95 273 1.7 5.2 0.00 0.00 0.00 35 1010.0
20260507200640 95 299 2.6 6.1 0.00 0.00 0.00 36 1010.3
20260507195639 96 305 2.6 6.1 0.00 0.00 0.00 34 1010.3
20260507194638 96 257 1.7 5.2 0.00 0.00 0.00 33 1010.3
20260507193637 97 306 1.7 5.2 0.00 0.00 0.00 33 1010.6
20260507192637 97 235 2.6 7.0 0.00 0.00 0.00 34 1010.3
20260507191636 96 253 1.7 7.0 0.00 0.00 0.00 35 1010.6
20260507190635 96 279 1.7 7.0 0.00 0.00 0.00 34 1010.6
20260507185603 96 237 1.7 8.7 0.00 0.00 0.00 36 1011.0
20260507184602 96 204 1.7 8.7 0.00 0.00 0.00 36 1011.3
20260507183601 95 152 1.7 5.2 0.00 0.00 0.00 36 1011.3
20260507182600 95 213 1.7 4.3 0.00 0.00 0.00 37 1011.7
20260507181559 94 307 1.7 7.0 0.00 0.00 0.00 38 1012.0
20260507180559 94 257 1.7 8.7 0.00 0.00 0.00 40 1012.0
20260507175557 94 183 3.5 9.6 0.00 0.00 0.00 41 1012.0
20260507174525 93 246 2.6 9.6 0.00 0.00 0.00 43 1012.3
20260507173524 93 246 2.6 7.0 0.00 0.00 0.00 43 1012.3
20260507172523 92 270 1.7 7.0 0.00 0.00 0.00 47 1012.3
20260507171522 93 283 1.7 5.2 0.00 0.00 0.00 47 1012.3
20260507170521 92 279 2.6 6.1 0.00 0.00 0.00 46 1012.3
20260507165520 92 240 1.7 4.3 0.00 0.00 0.00 47 1012.3
20260507164520 92 268 1.7 5.2 0.00 0.00 0.00 49 1012.3
20260507163519 92 164 2.6 7.8 0.00 0.00 0.00 49 1012.3
20260507162518 91 163 3.5 7.8 0.00 0.00 0.00 53 1012.3
20260507161517 91 254 0.9 7.0 0.00 0.00 0.00 54 1012.7
20260507160445 90 205 1.7 8.7 0.00 0.00 0.00 57 1012.7
20260507155444 90 210 1.7 8.7 0.00 0.00 0.00 57 1012.7
20260507154443 89 211 1.7 5.2 0.00 0.00 0.00 59 1013.0
20260507153411 89 259 0.9 6.1 0.00 0.00 0.00 59 1013.0
20260507152411 89 176 2.6 7.0 0.00 0.00 0.00 61 1013.0
20260507151338 88 172 2.6 7.0 0.00 0.00 0.00 62 1013.0
20260507150337 87 176 1.7 7.8 0.00 0.00 0.00 64 1013.0
20260507145307 87 173 1.7 7.8 0.00 0.00 0.00 65 1013.3
20260507144304 86 233 1.7 7.0 0.00 0.00 0.00 66 1013.3
20260507143303 86 182 3.5 8.7 0.00 0.00 0.00 68 1013.3
20260507142306 85 172 4.3 8.7 0.00 0.00 0.00 67 1013.3
20260507141301 84 264 0.9 6.1 0.00 0.00 0.00 70 1013.3
20260507140300 83 186 1.7 8.7 0.00 0.00 0.00 71 1013.7
20260507135259 83 164 2.6 6.1 0.00 0.00 0.00 74 1013.3
20260507134258 82 189 2.6 8.7 0.00 0.00 0.00 74 1013.3
20260507133257 81 167 2.6 8.7 0.00 0.00 0.00 75 1013.7
20260507132257 81 159 3.5 8.7 0.00 0.00 0.00 76 1013.3
20260507131256 80 170 1.7 6.1 0.00 0.00 0.00 77 1013.3
20260507130255 79 172 0.9 4.3 0.00 0.00 0.00 78 1013.3
20260507125254 78 167 1.7 4.3 0.00 0.00 0.00 82 1013.7
20260507124253 76 156 1.7 4.3 0.00 0.00 0.00 85 1013.3
20260507123252 74 171 1.7 2.6 0.00 0.00 0.00 88 1013.7
20260507122251 72 113 0.9 1.7 0.00 0.00 0.00 91 1013.7
20260507121219 70 152 0.0 1.7 0.00 0.00 0.00 94 1013.7
20260507120218 70 149 0.0 0.9 0.00 0.00 0.00 94 1013.7
20260507115217 69 121 0.0 0.9 0.00 0.00 0.00 95 1013.7
20260507114216 68 153 0.0 0.0 0.00 0.00 0.00 95 1013.3
20260507113215 67 153 0.0 0.0 0.00 0.00 0.00 95 1013.3
20260507112143 67 153 0.0 0.0 0.00 0.00 0.00 96 1013.3
20260507111142 66 153 0.0 0.0 0.00 0.00 0.00 96 1013.0
20260507110141 66 153 0.0 0.0 0.00 0.00 0.00 96 1013.0
20260507105140 66 153 0.0 0.0 0.00 0.00 0.00 96 1013.0
20260507104139 65 154 0.0 0.0 0.00 0.00 0.00 95 1013.0
20260507103138 66 153 0.0 0.0 0.00 0.00 0.00 95 1013.0
20260507102106 66 154 0.0 0.0 0.00 0.00 0.00 95 1012.6
20260507101106 66 153 0.0 0.0 0.00 0.00 0.00 95 1012.7
20260507100105 66 153 0.0 0.0 0.00 0.00 0.00 94 1012.7
20260507095104 66 154 0.0 0.0 0.00 0.00 0.00 94 1012.7
20260507094103 66 153 0.0 0.0 0.00 0.00 0.00 94 1012.7
20260507093102 66 153 0.0 0.0 0.00 0.00 0.00 94 1012.7
20260507092101 66 154 0.0 0.0 0.00 0.00 0.00 94 1012.7
20260507091100 66 154 0.0 0.0 0.00 0.00 0.00 93 1012.3
20260507090059 66 153 0.0 0.0 0.00 0.00 0.00 93 1012.3
20260507085058 65 154 0.0 0.0 0.00 0.00 0.00 93 1012.0
20260507084057 65 153 0.0 0.0 0.00 0.00 0.00 92 1012.3
20260507083056 65 154 0.0 0.0 0.00 0.00 0.00 92 1012.3
20260507082055 65 154 0.0 0.0 0.00 0.00 0.00 91 1012.3
20260507081054 65 153 0.0 0.0 0.00 0.00 0.00 91 1012.3
20260507080053 66 153 0.0 0.0 0.00 0.00 0.00 90 1012.3
20260507075052 66 153 0.0 0.0 0.00 0.00 0.00 90 1012.3
20260507074020 67 153 0.0 0.0 0.00 0.00 0.00 90 1012.3
20260507072948 67 154 0.0 0.0 0.00 0.00 0.00 88 1012.3
20260507071947 67 153 0.0 0.0 0.00 0.00 0.00 88 1012.3
20260507070946 68 153 0.0 0.0 0.00 0.00 0.00 87 1012.7
20260507065945 68 154 0.0 0.0 0.00 0.00 0.00 87 1012.7
20260507064944 69 153 0.0 0.0 0.00 0.00 0.00 84 1013.0
20260507063943 69 154 0.0 0.0 0.00 0.00 0.00 83 1013.0
20260507062942 70 154 0.0 0.0 0.00 0.00 0.00 82 1013.3
20260507061942 70 153 0.0 0.0 0.00 0.00 0.00 81 1013.3
20260507060941 71 154 0.0 0.0 0.00 0.00 0.00 80 1013.3
20260507055909 72 153 0.0 0.0 0.00 0.00 0.00 76 1013.3
20260507054908 73 154 0.0 0.9 0.00 0.00 0.00 75 1013.3
20260507053908 73 153 0.0 0.9 0.00 0.00 0.00 73 1013.7
20260507052906 74 146 0.0 3.5 0.00 0.00 0.00 72 1013.7
20260507051905 74 160 0.0 3.5 0.00 0.00 0.00 71 1013.7
20260507050904 73 204 0.9 1.7 0.00 0.00 0.00 73 1013.7
20260507045903 73 153 0.9 1.7 0.00 0.00 0.00 75 1013.7
20260507044902 72 150 0.0 0.9 0.00 0.00 0.00 76 1013.7
20260507043759 72 141 0.0 1.7 0.00 0.00 0.00 77 1013.7
20260507042758 72 144 0.9 1.7 0.00 0.00 0.00 79 1014.0
20260507041757 72 172 0.0 0.0 0.00 0.00 0.00 79 1014.0
20260507040757 72 172 0.0 0.0 0.00 0.00 0.00 79 1014.0
20260507035756 72 172 0.0 0.0 0.00 0.00 0.00 78 1014.0
20260507034755 73 172 0.0 0.9 0.00 0.00 0.00 77 1013.7
20260507033754 73 172 0.0 0.9 0.00 0.00 0.00 76 1014.0
20260507032753 74 172 0.0 0.0 0.00 0.00 0.00 76 1014.0
20260507031752 74 172 0.0 0.0 0.00 0.00 0.00 74 1014.0
20260507030751 75 182 0.0 1.7 0.00 0.00 0.00 73 1014.0
20260507025750 75 162 0.9 1.7 0.00 0.00 0.00 73 1014.0
20260507024749 75 170 0.0 0.9 0.00 0.00 0.00 71 1014.0
20260507023748 76 183 0.0 1.7 0.00 0.00 0.00 69 1014.0
20260507022645 76 156 0.0 1.7 0.00 0.00 0.00 68 1013.7
20260507021644 76 282 0.9 1.7 0.00 0.00 0.00 68 1013.7
20260507020643 77 181 0.0 1.7 0.00 0.00 0.00 67 1013.3
20260507015642 78 181 0.9 2.6 0.00 0.00 0.00 66 1013.3
20260507014610 78 148 0.9 3.5 0.00 0.00 0.00 64 1013.3
20260507013507 78 127 0.9 4.3 0.00 0.00 0.00 64 1013.3
20260507012506 79 163 1.7 4.3 0.00 0.00 0.00 62 1013.0
20260507011505 79 350 0.0 4.3 0.00 0.00 0.00 61 1013.0
20260507010505 80 145 1.7 4.3 0.00 0.00 0.00 59 1013.0
20260507005503 80 186 1.7 5.2 0.00 0.00 0.00 59 1013.0
20260507004502 81 80 0.9 7.0 0.00 0.00 0.00 58 1013.0
20260507003502 81 147 0.9 7.8 0.00 0.00 0.00 57 1012.6
20260507002500 82 129 0.9 5.2 0.00 0.00 0.00 57 1012.6
20260507001459 82 144 1.7 7.0 0.00 0.00 0.00 57 1012.6
20260507000459 83 154 1.7 7.0 0.00 0.00 0.00 56 1012.6
20260506235426 84 142 0.9 6.1 0.00 0.00 0.00 56 1012.6
20260506234425 84 169 1.7 7.0 0.00 0.00 0.00 55 1012.3
20260506233424 85 173 0.9 7.8 0.00 0.00 0.00 54 1012.3
20260506232424 86 118 2.6 7.8 0.00 0.00 0.00 53 1012.3
20260506231422 86 154 1.7 6.1 0.00 0.00 0.00 53 1012.3
20260506230421 87 179 2.6 8.7 0.00 0.00 0.00 52 1012.3
20260506225350 87 187 3.5 8.7 0.00 0.00 0.00 51 1012.3
20260506224349 88 153 2.6 10.4 0.00 0.00 0.00 51 1012.3
20260506223348 88 163 1.7 7.0 0.00 0.00 0.00 53 1012.3
20260506222347 89 119 1.7 7.8 0.00 0.00 0.00 52 1012.3
20260506221346 91 103 1.7 4.3 0.00 0.00 0.00 49 1012.3
20260506220345 91 133 2.6 5.2 0.00 0.00 0.00 42 1012.3
20260506215344 91 110 0.9 5.2 0.00 0.00 0.00 41 1012.3
20260506214343 91 220 0.9 5.2 0.00 0.00 0.00 41 1012.3
20260506213342 92 182 1.7 5.2 0.00 0.00 0.00 42 1012.3
20260506212341 91 207 0.9 4.3 0.00 0.00 0.00 43 1012.3
20260506211340 91 167 1.7 5.2 0.00 0.00 0.00 42 1012.3
20260506210308 91 252 0.9 7.0 0.00 0.00 0.00 42 1012.3
20260506205307 92 187 1.7 7.0 0.00 0.00 0.00 41 1012.3
20260506204306 92 196 1.7 4.3 0.00 0.00 0.00 41 1012.3